Find FORMOSAT 5

NORAD ID: 42920 Int'l Des: 2017-049 Owner: NSPO Country: TW operational
LEOCIRCULARRETROGRADESSO

Live Position

Loading 3D Globe...

About FORMOSAT 5

Description loading...

Upcoming Passes

Passes for default location (London). Set your location on the main map for personalized predictions.

Altitude History

Loading altitude history...

Two-Line Element Set

1 42920U 17049A 26106.26116150 .00000088 00000-0 33314-4 0 9999
2 42920 98.2265 182.9427 0010137 273.2504 86.7531 14.50874194457693
Epoch: Apr 16, 2026 • Age: 13 hours

Current Status

Altitude 735.6 km
Velocity 7.49 km/s
Sub-Earth Point -46.18°S, 133.53°W
Launch Date Aug 24, 2017
Age 8.6 years
Type other

Technical Details

Classification Payload
Mass 525.00 kg
Dry Mass 445.00 kg
Total Mass 525.00 kg
Length 3.00 m
Diameter 1.20 m
Span 4.50 m
Shape Oct cyl+2 pan
Manufacturer NSPO
Phase Status In Orbit
Owner/State NSPO/TW

Most Searched